[[{"header":{"parameterUnit":"m.s-1","parameterCategory":1,"la1":30.2991,"la2":30.254,"lo1":-89.0895,"lo2":-89.0444,"dy":0.0017,"dx":0.0017,"nx":28,"ny":28,"refTime":"2024-03-27T21:00:00:Z","depth":0,"parameterNumber":2,"parameterNumberName":"U-component_of_WINDS"},"data":[0,0,0,0,0,0,0,0,0,0,0,0,0,0,0,0,0,0,0,0,0,0,0,0,0,0,0,0,0,0,0,0,0,0,0,0,0,0,0,0,0,0,0,0,0,0,0,0,0,0,0,0,0,0,0,0,0,0,-1.5349,-1.5349,0,-1.5345,-1.5345,-1.5345,-1.5335,-1.5335,-1.5335,-1.5335,-1.5329,-1.5329,-1.5329,0,0,0,0,0,0,0,0,0,0,0,0,0,-1.5345,-1.5345,-1.5349,-1.5349,-1.5349,-1.5345,-1.5345,-1.5345,-1.5335,-1.5335,-1.5335,-1.5334,-1.5329,-1.5329,-1.5329,0,0,0,0,0,0,0,0,0,0,0,0,0,-1.5344,-1.5345,-1.5349,-1.5344,-1.5343,-1.5345,-1.5345,-1.5345,-1.5335,-1.5335,-1.5335,-1.5334,-1.5328,-1.5329,-1.5329,-1.5335,0,0,-1.5329,-1.5329,0,0,0,0,0,0,0,0,-1.5345,-1.5345,-1.5345,-1.5344,-1.5344,-1.5341,-1.5342,-1.5342,-1.5335,-1.5338,-1.5335,-1.5334,-1.5333,-1.5332,-1.5332,-1.5335,-1.5335,-1.5329,-1.5329,-1.5329,-1.5329,0,0,0,0,0,0,0,-1.5345,-1.5345,-1.5348,-1.5345,-1.5344,-1.534,-1.534,-1.5342,-1.5337,-1.5338,-1.5337,-1.5337,-1.5332,-1.5332,-1.5332,-1.5335,-1.5329,-1.5329,-1.5329,-1.5329,-1.534,-1.534,0,0,0,0,0,0,-1.5346,-1.5345,-1.5348,-1.5348,-1.5343,-1.5341,-1.534,-1.5342,-1.5337,-1.5336,-1.5337,-1.5337,-1.5332,-1.5332,-1.5332,-1.5338,-1.5329,-1.5329,-1.5329,-1.5339,-1.534,-1.534,0,0,0,0,0,0,-1.5346,-1.5346,-1.5348,-1.5346,-1.5346,-1.5341,-1.5343,-1.5342,-1.5342,-1.5337,-1.5336,-1.5338,-1.5332,-1.5332,-1.5334,-1.5338,-1.5329,-1.5329,-1.5339,-1.534,-1.534,-1.5351,0,0,0,0,0,0,-1.5346,-1.5346,-1.535,-1.5346,-1.5346,-1.5352,-1.5343,-1.5342,-1.5342,-1.5341,-1.5337,-1.5336,-1.5332,-1.5334,-1.5334,-1.5337,-1.5329,-1.5339,-1.5339,-1.534,-1.535,-1.5352,-1.5353,0,0,0,0,0,-1.5346,-1.5353,-1.535,-1.535,-1.5351,-1.5352,-1.5352,-1.5347,-1.5343,-1.5345,-1.5341,-1.5336,-1.5337,-1.5334,-1.5334,-1.5338,-1.5339,-1.5339,-1.534,-1.535,-1.5351,-1.5353,0,0,0,0,0,0,-1.5357,-1.5353,-1.5349,-1.5356,-1.5354,-1.535,-1.5354,-1.5349,-1.5349,-1.5348,-1.5341,-1.534,-1.5343,-1.534,-1.5337,-1.5343,-1.5337,-1.5337,-1.5344,-1.5346,-1.5347,-1.5348,-1.5329,0,0,0,0,0,-1.5361,-1.5363,-1.5358,-1.5365,-1.5364,-1.5359,-1.536,-1.5356,-1.5353,-1.5353,-1.5349,-1.5346,-1.5346,-1.5346,-1.5345,-1.5349,-1.5348,-1.5352,-1.5353,-1.5354,-1.5355,-1.5355,-1.5356,-1.5342,-1.5342,-1.5342,0,0,-1.5368,-1.5366,-1.5368,-1.5367,-1.5366,-1.5367,-1.5359,-1.5361,-1.5361,-1.5353,-1.5355,-1.5352,-1.5348,-1.5351,-1.5352,-1.5349,-1.5358,-1.5355,-1.5356,-1.5356,-1.5356,-1.5357,-1.5358,-1.5342,-1.5342,-1.5342,0,0,-1.5382,-1.5381,-1.5385,-1.5383,-1.538,-1.5377,-1.5377,-1.5373,-1.5371,-1.5373,-1.5366,-1.5365,-1.5365,-1.5362,-1.5361,-1.537,-1.5365,-1.537,-1.5377,-1.5377,-1.5379,-1.5379,-1.5382,-1.5383,-1.537,-1.537,-1.537,0,-1.5391,-1.5394,-1.5388,-1.539,-1.5389,-1.5381,-1.5385,-1.5383,-1.538,-1.5379,-1.5375,-1.5373,-1.537,-1.5372,-1.5374,-1.5373,-1.5373,-1.5371,-1.5379,-1.538,-1.5381,-1.5383,-1.5384,-1.5371,-1.5371,-1.5371,-1.5371,0,-1.5404,-1.5406,-1.541,-1.5407,-1.5406,-1.5409,-1.5403,-1.5402,-1.5398,-1.5394,-1.5394,-1.539,-1.5387,-1.5387,-1.5383,-1.5387,-1.5385,-1.538,-1.5375,-1.5383,-1.5385,-1.5385,-1.5372,-1.5372,-1.5372,-1.5371,0,0,-1.5427,-1.542,-1.5421,-1.5419,-1.5414,-1.5415,-1.5416,-1.5414,-1.5413,-1.541,-1.541,-1.5409,-1.5404,-1.5402,-1.5397,-1.5397,-1.5403,-1.5392,-1.5392,-1.5394,-1.5406,-1.541,-1.5411,-1.5399,-1.5399,-1.5399,-1.5406,0,-1.544,-1.5443,-1.5436,-1.5441,-1.5441,-1.5432,-1.5432,-1.5429,-1.5424,-1.5423,-1.5417,-1.5416,-1.541,-1.5408,-1.5408,-1.5403,-1.5405,-1.5402,-1.5398,-1.5398,-1.54,-1.5412,-1.5417,-1.5423,-1.5407,-1.5407,-1.5407,0,-1.5455,-1.5453,-1.5457,-1.545,-1.545,-1.5451,-1.5447,-1.5447,-1.5441,-1.5438,-1.5434,-1.5428,-1.5427,-1.5421,-1.5418,-1.5416,-1.5413,-1.541,-1.541,-1.541,-1.5403,-1.5412,-1.5425,-1.5426,-1.5408,-1.5408,-1.5408,0,-1.5471,-1.5469,-1.5471,-1.5469,-1.5461,-1.5462,-1.5458,-1.5453,-1.5451,-1.5447,-1.5445,-1.5441,-1.5439,-1.5435,-1.5426,-1.5423,-1.5424,-1.5418,-1.542,-1.542,-1.5422,-1.5422,-1.5435,-1.542,-1.542,-1.542,-1.542,0,-1.5486,-1.5488,-1.5477,-1.5479,-1.548,-1.5472,-1.5474,-1.5469,-1.5464,-1.5462,-1.5454,-1.5452,-1.5442,-1.5439,-1.5432,-1.543,-1.5429,-1.5425,-1.5424,-1.5426,-1.5427,-1.5425,-1.5425,-1.542,-1.542,-1.542,-1.542,0,-1.5504,-1.5497,-1.5498,-1.549,-1.5488,-1.5489,-1.5482,-1.5481,-1.5475,-1.5474,-1.5473,-1.5463,-1.5459,-1.545,-1.5444,-1.5439,-1.5438,-1.5435,-1.5441,-1.544,-1.5442,-1.5442,-1.5455,-1.5456,-1.5441,-1.5441,-1.5441,0,-1.5514,-1.5516,-1.5507,-1.5506,-1.5503,-1.5501,-1.5499,-1.549,-1.5488,-1.548,-1.548,-1.5475,-1.5471,-1.5465,-1.5456,-1.545,-1.5447,-1.5452,-1.5446,-1.5448,-1.5446,-1.5446,-1.5446,-1.5453,-1.5453,-1.5454,-1.5454,0,-1.5533,-1.5528,-1.5526,-1.5522,-1.5519,-1.5515,-1.5511,-1.551,-1.5499,-1.5497,-1.5493,-1.5489,-1.5482,-1.5476,-1.5469,-1.5464,-1.5456,-1.5455,-1.5455,-1.5459,-1.5461,-1.5459,-1.5444,-1.5455,-1.5455,-1.5455,-1.5455,-1.5455,-1.5547,-1.5547,-1.5541,-1.5538,-1.5533,-1.5529,-1.5528,-1.5521,-1.5517,-1.5511,-1.5505,-1.5501,-1.5493,-1.5482,-1.5477,-1.5473,-1.5469,-1.547,-1.547,-1.547,-1.5471,-1.5462,-1.5471,-1.5471,-1.5471,-1.5471,-1.5471,0,-1.5565,-1.5559,-1.5557,-1.555,-1.5547,-1.5541,-1.5534,-1.5532,-1.5529,-1.5522,-1.5518,-1.5511,-1.5505,-1.5496,-1.5489,-1.5487,-1.5483,-1.5485,-1.5485,-1.5484,-1.5475,-1.5475,-1.5488,-1.5488,-1.5488,-1.5488,-1.5488,-1.5488,-1.5573,-1.5573,-1.5568,-1.5565,-1.5559,-1.5555,-1.5552,-1.5547,-1.5542,-1.5535,-1.5531,-1.5524,-1.5516,-1.5507,-1.5501,-1.5498,-1.5496,-1.5499,-1.5495,-1.5486,-1.5485,-1.5483,-1.5484,-1.5498,-1.5498,-1.5504,-1.5504,-1.5504]},{"header":{"parameterUnit":"m.s-1","parameterCategory":1,"la1":30.2991,"la2":30.254,"lo1":-89.0895,"lo2":-89.0444,"dy":0.0017,"dx":0.0017,"nx":28,"ny":28,"refTime":"2024-03-27T21:00:00:Z","depth":0,"parameterNumber":3,"parameterNumberName":"V-component_of_WINDS"},"data":[0,0,0,0,0,0,0,0,0,0,0,0,0,0,0,0,0,0,0,0,0,0,0,0,0,0,0,0,0,0,0,0,0,0,0,0,0,0,0,0,0,0,0,0,0,0,0,0,0,0,0,0,0,0,0,0,0,0,-2.5541,-2.5541,0,-2.5551,-2.5551,-2.5552,-2.5546,-2.5545,-2.5545,-2.5545,-2.5548,-2.5548,-2.5549,0,0,0,0,0,0,0,0,0,0,0,0,0,-2.5513,-2.5514,-2.5541,-2.5541,-2.5542,-2.5551,-2.5551,-2.5552,-2.5546,-2.5545,-2.5545,-2.5545,-2.5548,-2.5548,-2.5549,0,0,0,0,0,0,0,0,0,0,0,0,0,-2.5525,-2.5514,-2.5541,-2.554,-2.554,-2.5551,-2.5551,-2.5552,-2.5546,-2.5545,-2.5545,-2.5545,-2.5548,-2.5548,-2.5549,-2.556,0,0,-2.555,-2.5551,0,0,0,0,0,0,0,0,-2.5524,-2.5526,-2.554,-2.554,-2.554,-2.5547,-2.5543,-2.5554,-2.5546,-2.5543,-2.5545,-2.5544,-2.5548,-2.5548,-2.5551,-2.556,-2.556,-2.555,-2.5551,-2.5551,-2.5551,0,0,0,0,0,0,0,-2.5523,-2.5525,-2.5545,-2.554,-2.554,-2.5538,-2.5539,-2.5545,-2.5547,-2.5543,-2.5543,-2.5545,-2.5547,-2.555,-2.5551,-2.556,-2.555,-2.5551,-2.5551,-2.5551,-2.5585,-2.5585,0,0,0,0,0,0,-2.5523,-2.5524,-2.5545,-2.5545,-2.5531,-2.5539,-2.554,-2.5545,-2.5547,-2.5547,-2.5545,-2.5544,-2.5549,-2.555,-2.5551,-2.5568,-2.5551,-2.5551,-2.5552,-2.5584,-2.5585,-2.5585,0,0,0,0,0,0,-2.5523,-2.5525,-2.5544,-2.5535,-2.5537,-2.554,-2.5545,-2.5545,-2.5548,-2.5549,-2.5548,-2.5548,-2.5549,-2.555,-2.5559,-2.5568,-2.5552,-2.5552,-2.5583,-2.5584,-2.5585,-2.56,0,0,0,0,0,0,-2.5522,-2.5525,-2.5529,-2.5535,-2.5538,-2.5554,-2.5546,-2.5546,-2.555,-2.5549,-2.5551,-2.5551,-2.5549,-2.5559,-2.556,-2.5568,-2.5552,-2.5583,-2.5584,-2.5585,-2.5598,-2.5601,-2.5603,0,0,0,0,0,-2.5521,-2.553,-2.553,-2.5532,-2.5544,-2.5554,-2.5555,-2.5555,-2.555,-2.5555,-2.5557,-2.5551,-2.5566,-2.556,-2.5561,-2.5569,-2.5582,-2.5583,-2.5585,-2.5597,-2.56,-2.5603,0,0,0,0,0,0,-2.5521,-2.5531,-2.553,-2.5542,-2.5548,-2.5553,-2.5559,-2.5557,-2.5562,-2.5561,-2.5559,-2.5559,-2.557,-2.557,-2.5562,-2.5583,-2.5573,-2.5575,-2.5583,-2.5585,-2.5588,-2.5588,-2.5553,0,0,0,0,0,-2.5523,-2.5533,-2.554,-2.5549,-2.5553,-2.5556,-2.556,-2.556,-2.5565,-2.5566,-2.5568,-2.5571,-2.5577,-2.5581,-2.5586,-2.5598,-2.56,-2.5605,-2.5607,-2.5609,-2.5611,-2.5622,-2.5625,-2.559,-2.559,-2.559,0,0,-2.5526,-2.5533,-2.5538,-2.555,-2.5554,-2.5564,-2.5557,-2.5566,-2.5573,-2.5566,-2.5578,-2.5579,-2.5583,-2.5595,-2.56,-2.5595,-2.5622,-2.5611,-2.5612,-2.5613,-2.5624,-2.5627,-2.563,-2.5591,-2.5591,-2.559,0,0,-2.5537,-2.5542,-2.5554,-2.556,-2.5569,-2.5572,-2.5575,-2.5581,-2.5584,-2.5595,-2.5592,-2.56,-2.5609,-2.5614,-2.5617,-2.5637,-2.5633,-2.5638,-2.565,-2.5661,-2.5664,-2.5666,-2.5677,-2.568,-2.5639,-2.564,-2.564,0,-2.5539,-2.5555,-2.5558,-2.557,-2.5577,-2.5576,-2.5588,-2.5592,-2.5601,-2.5606,-2.5601,-2.5617,-2.5619,-2.5635,-2.564,-2.5642,-2.5646,-2.5638,-2.5663,-2.5666,-2.5668,-2.5678,-2.5682,-2.564,-2.564,-2.564,-2.564,0,-2.5559,-2.5571,-2.5578,-2.5593,-2.56,-2.5611,-2.5616,-2.5623,-2.5623,-2.5627,-2.5641,-2.5644,-2.5652,-2.5656,-2.5653,-2.5672,-2.567,-2.5664,-2.5655,-2.5673,-2.5682,-2.5685,-2.5642,-2.5641,-2.5641,-2.5641,0,0,-2.5567,-2.5588,-2.5591,-2.56,-2.5612,-2.5621,-2.5633,-2.5645,-2.5653,-2.5659,-2.5671,-2.5682,-2.5679,-2.5683,-2.5682,-2.5691,-2.5712,-2.5685,-2.5685,-2.5693,-2.5737,-2.5743,-2.5747,-2.5709,-2.571,-2.5711,-2.5738,0,-2.5582,-2.5607,-2.5613,-2.5634,-2.5647,-2.5649,-2.566,-2.5669,-2.5674,-2.5684,-2.5688,-2.5698,-2.5691,-2.5694,-2.5704,-2.5707,-2.5721,-2.5705,-2.5721,-2.5721,-2.5722,-2.5751,-2.5756,-2.5781,-2.5741,-2.5741,-2.5742,0,-2.5601,-2.5615,-2.5639,-2.5656,-2.5661,-2.5671,-2.5686,-2.5695,-2.5706,-2.5709,-2.5717,-2.5717,-2.5731,-2.5721,-2.5741,-2.5731,-2.5738,-2.5741,-2.5742,-2.5744,-2.5734,-2.5757,-2.5789,-2.5794,-2.5747,-2.5746,-2.5746,0,-2.5609,-2.5633,-2.5652,-2.5659,-2.5677,-2.5685,-2.5693,-2.5704,-2.5713,-2.5724,-2.5731,-2.5742,-2.5749,-2.5758,-2.5762,-2.5754,-2.5783,-2.5772,-2.5787,-2.5787,-2.5793,-2.5793,-2.5829,-2.5794,-2.5794,-2.5794,-2.5794,0,-2.5626,-2.5641,-2.5657,-2.5668,-2.5687,-2.5694,-2.5711,-2.5718,-2.573,-2.5743,-2.5743,-2.5755,-2.5758,-2.5771,-2.5773,-2.5792,-2.5794,-2.5797,-2.5798,-2.5799,-2.5799,-2.5804,-2.5803,-2.5795,-2.5795,-2.5794,-2.5794,0,-2.5637,-2.5648,-2.567,-2.5688,-2.5693,-2.5706,-2.5721,-2.5733,-2.574,-2.5757,-2.5761,-2.5771,-2.5787,-2.5792,-2.5808,-2.5811,-2.5834,-2.5831,-2.5831,-2.5832,-2.5847,-2.5847,-2.589,-2.5897,-2.5855,-2.5855,-2.5855,0,-2.5647,-2.566,-2.5683,-2.5694,-2.5703,-2.572,-2.5731,-2.5739,-2.575,-2.5768,-2.5778,-2.5795,-2.5809,-2.5834,-2.5841,-2.5856,-2.5855,-2.587,-2.5857,-2.5859,-2.586,-2.586,-2.5863,-2.5872,-2.5873,-2.5873,-2.5873,0,-2.5666,-2.5673,-2.569,-2.5711,-2.5726,-2.5741,-2.5756,-2.5764,-2.5775,-2.5788,-2.5807,-2.5818,-2.584,-2.5857,-2.5873,-2.5879,-2.5879,-2.5878,-2.5882,-2.5884,-2.5885,-2.5888,-2.584,-2.5876,-2.5876,-2.5876,-2.5876,-2.5875,-2.5679,-2.5693,-2.5713,-2.5733,-2.5747,-2.5763,-2.5777,-2.5788,-2.5805,-2.5826,-2.5829,-2.5851,-2.5865,-2.5888,-2.5896,-2.5912,-2.5908,-2.5914,-2.5915,-2.5917,-2.5921,-2.5881,-2.5914,-2.5914,-2.5914,-2.5914,-2.5914,0,-2.57,-2.5715,-2.5734,-2.5759,-2.5776,-2.5778,-2.5796,-2.581,-2.583,-2.5845,-2.5862,-2.5885,-2.5904,-2.5915,-2.5934,-2.5945,-2.5946,-2.595,-2.595,-2.5953,-2.5921,-2.5917,-2.595,-2.595,-2.595,-2.595,-2.595,-2.595,-2.5713,-2.5739,-2.5749,-2.5783,-2.5796,-2.582,-2.5832,-2.5847,-2.586,-2.5888,-2.5906,-2.5914,-2.5929,-2.595,-2.5968,-2.5971,-2.5978,-2.5984,-2.5987,-2.5957,-2.5954,-2.595,-2.5947,-2.5985,-2.5985,-2.6017,-2.6017,-2.6017]}]]